GFSFLT2_500_spd_000.txt.gz
Wind_Speed
34 34 32 30 29 28 27 26 26 27 30 31 33 35 37 37 36 38 37 36 38 40 37 37 37 33 36 40 33 31 32 31
26 25 21 23 25 26 26 26 26 27 29 29 29 31 34 36 37 39 39 40 40 39 39 41 38 40 40 42 42 42 37 37
24 25 23 24 27 24 25 26 26 28 29 30 32 36 40 40 39 41 44 45 46 47 46 45 45 41 41 46 42 47 47 45
25 25 25 25 25 25 24 26 29 30 32 33 34 36 38 39 40 41 43 45 47 49 49 45 44 47 50 45 52 52 54 52
14 16 15 15 15 14 13 14 16 18 21 23 24 25 27 28 30 28 27 31 32 31 34 37 42 47 49 51 57 60 59 56
11 12 12 13 15 15 15 17 17 18 20 21 23 25 27 30 32 33 32 32 33 37 33 34 37 39 38 40 37 46 60 60
12 13 15 17 18 19 20 22 23 25 27 28 29 31 35 36 36 36 37 36 34 33 33 33 34 35 35 38 35 39 47 69
16 16 19 20 21 25 26 27 30 31 32 34 35 35 36 38 40 41 40 41 40 39 37 35 34 34 34 31 38 42 47 47
18 19 21 23 24 27 29 31 35 36 37 39 41 42 44 44 44 44 46 45 45 45 44 43 41 39 37 32 29 37 36 42
22 24 24 27 29 33 34 34 38 39 41 43 46 48 50 52 52 51 51 49 47 47 48 48 47 44 41 39 37 33 30 38
22 23 25 26 29 32 34 36 40 43 45 45 46 49 51 53 54 55 55 54 52 50 50 49 48 48 47 44 42 40 36 32
26 28 30 31 33 35 38 39 44 45 48 51 50 54 56 59 61 59 58 59 58 58 57 55 51 50 49 48 47 44 41 40
31 34 34 35 39 41 44 46 48 50 52 55 54 57 59 64 70 71 71 67 62 61 60 60 59 56 50 49 49 50 47 46
38 41 43 43 45 49 50 52 54 57 59 62 62 62 62 67 67 67 69 70 71 69 66 62 59 58 57 52 49 50 53 50
42 45 49 51 51 55 56 56 58 60 64 66 67 68 70 69 67 67 68 68 66 68 68 67 62 59 57 57 52 51 53 54
44 48 49 51 54 54 57 60 60 62 65 68 71 73 74 75 71 69 68 65 64 64 64 63 63 63 62 58 57 55 53 53
47 51 50 52 56 58 59 60 61 64 68 72 75 74 72 71 68 65 62 63 63 64 62 61 61 62 62 60 60 58 55 55
52 54 53 54 57 59 61 61 63 68 71 73 72 68 67 65 62 61 58 59 61 62 62 61 59 59 60 59 57 59 56 56
58 58 58 57 58 59 61 64 66 70 71 72 72 68 63 61 60 59 60 65 63 60 60 58 56 55 55 55 56 55 57 57
57 61 64 64 64 63 66 65 68 70 70 72 66 62 60 59 57 58 60 64 65 63 60 58 56 52 52 51 52 53 54 56

GFSFLT2_500_spd_006.txt.gz
Wind_Speed
20 22 25 28 27 25 25 24 23 25 26 27 26 25 23 22 22 24 24 26 27 24 24 26 25 25 25 25 26 24 16 17
20 21 21 21 21 22 24 25 24 27 27 27 26 26 25 23 22 19 17 16 18 18 16 18 20 15 16 15 17 20 20 21
12 16 17 19 16 17 19 19 19 19 20 21 21 18 16 15 16 17 19 18 20 21 19 20 21 21 20 16 16 17 22 27
12 5 2 2 5 7 9 8 10 11 12 13 15 17 19 20 21 22 24 25 27 28 28 25 24 23 21 21 22 20 20 26
12 14 13 12 14 17 19 19 19 21 22 22 23 24 24 26 26 28 28 29 31 32 32 32 30 30 30 27 26 25 25 30
17 16 17 19 21 20 22 23 23 25 26 27 28 30 30 30 31 32 33 34 34 35 35 36 36 35 34 37 36 31 30 30
18 21 22 23 25 26 25 26 27 28 30 30 32 34 35 35 35 35 36 36 36 36 36 37 39 39 38 38 39 39 36 33
20 21 24 26 27 29 29 29 30 31 32 33 33 34 35 36 36 37 38 39 39 39 39 39 40 41 41 43 42 41 41 39
24 25 24 25 26 29 31 31 33 34 34 35 37 39 39 39 39 40 41 41 42 43 44 44 43 42 42 43 45 47 45 44
22 23 26 28 29 31 33 35 36 38 40 43 44 45 47 46 46 47 48 48 49 49 50 51 51 50 50 48 45 48 51 50
23 25 26 30 34 37 38 39 42 46 46 47 49 50 51 53 52 53 55 55 55 56 56 55 56 58 58 58 56 52 51 55
30 32 36 40 41 42 45 44 46 47 49 51 52 54 55 57 57 57 58 58 58 59 59 60 63 64 65 65 62 59 58 55
41 43 44 44 45 48 49 51 52 53 55 56 56 55 57 59 60 60 62 62 61 62 63 65 68 70 70 69 68 66 60 61
40 44 46 48 49 52 54 55 55 56 57 58 60 59 59 60 61 63 63 61 61 63 65 67 69 70 71 73 71 66 66 61
33 36 44 49 52 54 55 56 55 55 58 59 59 60 61 61 63 63 64 63 63 64 67 68 70 71 72 72 70 69 62 60
35 38 42 47 49 51 55 57 60 60 60 60 60 61 61 62 63 63 63 66 68 68 70 69 65 63 64 68 69 71 67 63
46 48 48 52 51 51 55 57 55 56 57 59 59 59 58 59 63 66 67 66 67 71 74 74 70 66 66 68 67 66 68 67
47 49 52 54 57 57 55 56 59 60 60 60 60 61 64 66 64 64 66 69 69 70 70 69 70 70 69 70 68 67 63 64
53 53 57 58 60 61 61 60 61 60 61 63 67 68 69 67 67 68 67 66 67 60 71 68 68 72 71 69 71 71 70 67
59 58 60 61 61 61 62 62 62 62 64 67 68 69 71 70 69 67 65 60 65 67 69 62 64 74 72 71 72 72 70 69

GFSFLT2_500_spd_009.txt.gz
Wind_Speed
23 23 24 21 21 21 22 23 24 24 25 26 27 26 27 26 25 24 24 25 23 19 12 13 13 11 13 16 19 22 24 22
21 19 17 17 19 21 20 20 21 20 20 18 19 20 20 18 16 16 16 15 16 17 16 15 14 15 15 13 13 11 16 20
10 11 11 11 12 14 16 18 19 18 19 18 18 17 16 17 17 17 18 18 20 22 23 23 22 20 19 19 19 17 15 14
11 9 8 9 10 13 17 18 19 20 22 22 21 22 22 24 24 24 25 26 26 27 27 27 27 25 23 22 22 21 21 21
13 11 12 14 15 17 21 24 25 25 26 27 28 29 28 28 28 28 29 29 31 31 32 31 30 30 29 28 27 26 25 24
17 17 17 20 22 23 24 25 26 28 30 31 31 32 34 33 33 32 32 32 32 32 33 34 33 33 33 32 30 30 30 29
22 24 24 24 23 23 24 25 26 27 29 31 32 33 34 34 35 36 37 36 36 35 35 36 36 36 36 36 36 35 34 33
23 25 26 25 26 27 28 29 30 31 32 33 34 37 38 39 40 42 42 42 43 44 44 44 43 44 43 42 42 41 39 38
26 27 27 28 29 30 31 32 35 37 40 41 42 44 45 45 45 46 47 47 47 47 49 50 50 50 49 48 47 46 46 46
23 25 27 29 31 35 39 41 41 42 43 46 48 49 50 51 52 51 51 51 52 53 53 53 53 54 55 54 52 50 49 49
29 32 35 37 40 42 44 45 45 46 49 52 54 55 55 56 56 55 55 56 56 56 57 58 57 58 57 56 56 55 54 54
35 37 41 43 44 46 48 50 50 50 51 53 54 56 57 57 58 59 61 61 60 60 60 61 62 62 62 61 60 60 60 60
33 36 39 43 46 48 49 50 51 53 55 56 55 56 58 60 60 61 62 61 61 61 62 63 64 64 64 63 63 64 64 64
32 34 40 44 48 50 50 51 52 52 54 58 61 63 64 63 61 61 62 63 63 62 60 60 61 61 62 62 62 65 68 70
36 40 44 48 50 53 55 52 54 53 55 57 60 62 62 63 63 63 61 61 61 62 61 60 59 60 61 63 64 66 68 69
40 44 49 51 51 52 53 56 56 57 60 62 61 61 63 63 62 61 62 64 66 67 66 66 66 63 64 63 63 66 70 69
47 53 55 54 54 55 57 58 57 56 57 57 58 60 60 60 61 63 65 66 67 70 68 68 69 68 71 72 73 71 70 70
54 57 59 59 58 59 59 58 58 59 61 63 63 65 66 68 69 69 67 65 63 64 66 67 69 68 71 70 71 71 72 73
58 59 59 57 57 56 56 58 60 62 64 66 69 71 71 70 69 69 69 66 66 66 67 65 66 65 68 66 71 71 72 73
58 57 56 56 58 60 61 63 65 67 70 72 73 74 76 76 76 74 72 68 65 64 63 64 58 63 64 72 71 73 75 77

GFSFLT2_500_spd_012.txt.gz
Wind_Speed
19 20 21 21 20 21 21 19 18 17 17 18 19 21 21 22 21 19 20 22 22 19 15 13 13 14 13 13 15 19 22 26
11 11 11 11 11 10 11 12 15 15 15 15 15 15 15 15 16 17 19 19 19 20 18 18 18 19 20 17 14 15 16 17
12 14 14 13 13 14 16 17 19 20 21 21 21 21 21 22 23 23 23 23 23 23 24 23 23 23 23 24 22 20 18 16
13 15 16 16 18 20 21 22 22 23 24 24 24 24 25 26 26 27 27 28 27 27 27 27 27 26 26 28 28 25 23 22
16 16 15 16 16 17 18 20 22 24 25 26 27 27 27 27 27 27 27 28 28 29 29 28 29 28 28 28 29 30 30 28
17 18 17 17 19 21 22 22 23 25 26 28 28 30 31 31 32 34 35 36 36 36 35 34 33 32 31 31 32 31 31 31
19 21 21 22 22 22 23 25 26 27 28 31 32 33 34 36 37 38 38 38 38 40 42 43 41 40 40 39 39 38 36 35
21 22 23 25 26 28 29 30 31 33 36 38 39 39 39 40 41 42 44 44 44 44 44 44 45 45 44 43 44 43 43 41
25 26 28 30 32 33 35 37 38 41 44 46 45 45 45 46 47 49 49 47 49 49 47 46 47 48 49 48 47 48 49 48
24 29 32 33 35 37 39 42 43 45 46 46 47 47 47 48 49 50 51 50 50 51 52 53 54 54 54 54 54 53 52 51
29 33 36 40 41 42 42 43 45 47 47 48 50 51 51 52 54 54 54 55 55 56 58 59 59 58 57 57 57 58 57 56
35 38 41 43 43 42 42 45 49 51 52 54 54 54 54 54 57 59 60 61 61 60 60 60 60 60 60 60 61 61 60 58
35 39 39 41 44 47 48 52 54 54 53 53 54 57 58 59 59 58 59 59 60 59 59 60 60 61 61 61 61 62 61 61
37 41 42 47 50 50 53 55 56 56 55 53 54 56 58 60 61 60 60 62 62 62 59 57 56 56 58 59 59 61 62 63
40 43 45 51 52 53 56 54 54 54 53 54 54 54 56 58 60 62 63 64 63 63 64 63 63 61 57 60 63 62 60 60
42 44 48 53 54 56 56 54 51 52 53 54 54 57 58 60 61 63 65 66 67 68 68 68 68 68 66 62 58 60 63 62
47 48 52 52 55 54 54 55 56 56 58 59 61 62 64 66 67 68 69 70 69 69 70 70 71 70 70 70 65 60 61 64
49 50 49 52 53 55 57 58 60 62 62 63 65 67 68 70 72 74 75 76 77 78 78 75 72 65 65 62 64 64 66 66
51 52 52 52 57 59 60 63 66 67 69 71 72 72 72 76 78 78 78 78 78 77 73 71 70 67 61 55 67 65 64 67
54 53 55 58 60 62 62 64 68 72 75 74 76 80 82 79 78 80 79 80 80 79 77 72 68 60 60 63 67 67 67 68

GFSFLT2_500_spd_015.txt.gz
Wind_Speed
10 11 11 11 10 9 9 10 12 14 16 17 18 17 17 17 17 17 17 15 15 14 15 16 16 16 18 19 19 18 18 19
10 12 15 15 14 14 15 16 17 17 17 18 17 18 18 19 20 21 21 21 20 21 22 21 19 18 20 21 21 22 20 19
13 14 14 15 16 17 17 17 18 18 18 18 19 19 19 19 20 22 22 23 24 24 24 24 24 24 23 23 22 23 24 23
12 14 14 15 15 15 17 17 18 18 19 19 20 21 22 22 22 22 22 23 23 24 25 25 26 26 26 25 24 23 22 24
10 11 12 14 16 16 17 18 20 21 22 22 22 24 27 27 27 27 28 28 29 29 29 28 28 29 29 29 28 27 26 25
12 13 15 17 19 20 21 22 25 27 28 28 30 32 35 35 35 34 34 34 35 35 34 34 33 33 34 35 36 35 34 33
16 17 18 20 21 24 27 29 32 33 34 36 37 39 40 39 39 39 39 39 40 41 40 39 38 39 39 38 38 39 40 40
22 24 26 27 28 30 32 34 36 37 37 37 38 39 39 39 39 40 41 41 42 42 43 44 44 43 42 41 40 41 42 43
25 27 28 28 29 31 32 35 38 38 36 37 39 40 40 40 42 42 42 42 43 44 45 45 46 46 46 46 46 46 46 47
28 30 32 33 35 37 38 39 40 41 43 43 44 45 44 44 44 44 44 44 46 48 50 51 51 52 51 51 51 52 52 51
29 34 38 40 39 40 41 42 43 45 45 49 51 50 50 49 49 50 51 52 52 52 51 51 50 50 51 52 52 52 53 53
36 38 39 39 40 41 45 46 49 48 51 51 49 49 49 49 48 49 50 51 52 52 53 53 52 53 53 52 52 53 54 54
37 40 41 41 43 47 49 50 54 52 53 53 53 51 51 53 54 55 56 57 57 58 60 61 60 59 59 57 56 56 55 55
38 39 39 44 47 49 49 52 52 52 52 52 52 54 54 53 55 56 58 59 59 59 60 62 64 65 66 64 63 59 58 59
39 40 44 47 49 51 52 52 51 51 53 55 57 57 57 59 60 60 61 62 63 65 66 66 68 67 65 66 66 63 60 58
41 43 48 49 48 49 51 52 53 54 58 59 59 60 62 63 64 65 67 66 66 68 71 72 73 73 71 72 71 68 66 62
45 47 48 47 48 51 53 55 56 60 62 63 64 64 66 67 68 70 70 72 74 75 71 69 71 72 74 70 69 69 70 67
46 46 48 50 53 55 57 59 62 65 68 69 69 71 72 74 77 77 77 79 79 77 78 77 75 75 76 73 71 71 72 70
45 48 50 53 56 59 62 65 68 70 71 74 75 76 77 81 81 82 81 80 80 78 76 76 78 79 77 74 72 68 67 67
49 53 57 60 61 64 68 72 73 75 75 75 71 76 79 82 85 85 83 81 83 82 83 82 79 78 76 70 66 65 63 59

GFSFLT2_500_spd_021.txt.gz
Wind_Speed
4 4 4 5 5 5 5 5 6 8 9 10 10 10 10 10 11 11 12 13 14 15 16 16 17 17 17 17 18 18 18 19
1 2 2 3 4 6 7 9 11 13 14 15 17 17 18 17 16 17 18 18 18 17 17 18 18 19 20 21 21 20 21 21
5 7 10 11 12 14 15 16 18 18 18 19 20 20 21 21 23 25 26 27 27 26 25 24 23 23 22 22 23 24 25 25
11 12 14 14 15 17 17 17 19 19 20 21 22 23 25 26 27 28 30 31 32 31 31 30 29 29 28 28 27 26 27 28
13 14 15 17 18 18 18 20 22 23 24 25 25 27 28 29 30 30 32 33 34 33 33 33 34 34 34 32 33 33 34 33
14 15 17 19 19 20 22 24 26 28 29 29 30 30 31 31 33 36 37 37 37 38 38 38 37 36 35 36 35 34 35 35
16 18 20 22 24 27 28 30 32 33 33 32 32 33 34 34 37 39 39 40 39 37 37 38 37 38 38 39 39 38 38 38
20 23 25 28 30 32 33 33 34 35 35 35 36 37 39 40 42 43 42 40 37 37 37 37 38 38 38 38 40 41 41 42
24 27 28 30 32 33 34 36 38 39 38 38 39 41 41 42 42 41 40 39 38 38 38 40 40 41 40 41 41 42 44 44
28 30 30 31 33 34 35 38 38 40 41 43 43 45 44 44 45 45 44 44 44 45 46 47 48 46 45 46 47 46 47 47
33 34 34 35 37 39 40 43 44 46 47 49 49 49 49 49 51 52 52 52 53 55 56 56 55 54 53 54 52 53 56 54
36 38 39 40 43 43 46 48 51 52 53 52 52 51 51 53 55 56 56 58 58 59 62 62 63 64 64 65 64 64 62 61
39 40 42 44 46 47 49 52 55 55 55 54 53 53 55 57 60 62 62 62 63 65 66 68 68 68 70 69 69 69 68 67
41 44 45 47 49 50 51 54 57 57 56 56 56 57 60 63 64 68 66 66 67 71 72 72 72 71 72 70 71 71 72 74
44 46 47 49 52 54 55 57 56 56 58 59 60 62 66 67 68 66 69 73 75 76 76 76 76 74 73 73 70 72 71 70
46 49 51 51 53 54 54 55 56 58 60 61 65 68 67 68 69 71 73 75 76 76 75 74 75 75 74 73 75 74 75 77
50 51 51 51 51 53 55 56 58 61 63 66 68 68 71 73 74 74 75 75 76 76 76 77 77 77 77 76 75 74 74 74
47 46 48 51 52 54 55 58 61 65 68 70 71 72 73 75 76 76 77 79 79 80 79 79 79 79 80 81 79 79 80 81
44 48 51 54 56 58 60 64 67 69 72 73 73 74 76 77 78 78 78 79 78 79 79 80 81 83 84 85 85 85 86 86
50 53 55 58 61 63 67 69 72 74 74 74 76 76 77 78 76 77 78 80 79 80 81 82 85 86 88 90 90 88 84 84

GFSFLT2_500_spd_024.txt.gz
Wind_Speed
5 3 3 4 5 6 8 9 10 11 12 12 13 13 14 15 15 15 15 15 16 16 18 19 19 19 19 19 20 20 19 19
2 4 6 6 7 9 11 13 14 15 16 16 16 17 17 19 19 20 21 23 24 24 24 24 23 22 22 22 23 23 22 23
7 8 10 9 14 13 14 15 16 17 19 20 21 22 23 21 25 25 26 26 25 25 26 26 26 27 28 27 26 24 24 25
10 11 11 13 14 16 18 20 20 21 22 23 24 25 26 26 25 26 26 28 30 31 31 30 29 29 29 29 31 30 30 30
8 11 13 16 19 20 21 22 23 23 25 26 28 28 27 28 28 29 30 32 35 36 37 37 36 34 33 32 30 31 33 34
11 15 16 20 22 23 24 26 27 29 28 30 31 31 31 31 33 36 38 39 40 41 40 40 37 34 34 34 35 35 34 34
15 17 20 24 25 26 29 30 32 32 32 33 34 34 34 35 37 39 40 40 42 39 36 34 33 32 32 32 35 36 37 38
21 23 23 26 27 29 31 33 35 35 36 35 34 35 38 41 42 41 41 39 38 37 36 36 36 36 36 36 35 37 39 39
22 23 27 28 29 31 34 35 37 40 41 41 41 41 43 43 43 41 39 40 41 41 41 40 41 42 42 43 45 44 42 44
15 32 32 31 34 35 38 39 42 45 45 48 47 45 47 45 45 44 43 45 47 50 51 51 50 51 52 52 52 51 51 50
32 36 36 39 39 40 41 45 47 49 51 53 51 52 51 50 49 48 48 50 53 56 56 56 57 57 57 57 58 59 60 60
34 39 40 41 45 45 48 49 50 52 53 57 54 55 53 53 54 54 55 57 60 61 60 60 60 62 63 63 64 65 66 67
39 40 43 45 46 50 51 53 55 56 57 57 55 57 55 57 58 59 61 64 65 65 66 65 66 68 68 68 68 68 69 68
41 44 46 46 49 52 52 54 56 57 57 57 57 60 59 60 62 65 68 69 69 69 69 69 70 69 71 72 72 71 70 69
44 46 48 48 52 55 54 54 54 55 58 60 60 60 64 68 71 72 72 72 71 73 74 77 75 73 74 76 76 75 74 70
45 49 50 51 51 51 52 53 56 58 59 61 64 67 70 72 74 76 77 75 74 76 76 75 76 75 74 74 75 76 76 75
47 50 52 50 49 51 54 55 57 60 63 65 68 70 73 76 78 79 78 77 79 79 76 76 77 76 75 74 74 75 76 76
44 46 48 51 52 53 54 57 60 63 65 69 72 76 78 79 80 80 80 82 85 86 84 84 78 78 79 79 78 78 78 80
41 43 47 50 54 59 63 64 66 70 73 76 79 80 80 79 80 80 82 85 86 87 88 85 84 82 81 82 82 83 85 86
45 47 50 55 58 62 66 70 72 76 79 82 82 78 78 78 79 81 84 87 87 86 87 86 85 84 84 84 85 85 86 83

GFSFLT2_500_spd_027.txt.gz
Wind_Speed
6 3 2 2 4 5 6 8 9 12 12 12 13 13 15 16 17 18 19 19 21 22 23 22 22 21 20 20 22 23 24 22
2 2 3 5 7 10 12 13 14 15 15 16 16 16 19 20 20 20 21 21 21 22 22 21 23 23 24 24 25 24 25 26
3 4 7 8 10 12 13 16 18 20 19 20 20 20 21 25 25 24 23 22 22 23 25 26 26 27 26 26 27 26 28 29
4 6 7 11 13 15 16 18 20 23 24 24 24 24 24 23 24 25 26 27 28 30 31 32 33 32 30 29 29 29 28 28
9 10 12 11 10 15 18 21 21 24 27 27 26 27 28 28 27 27 29 32 33 34 35 36 36 35 33 29 26 28 29 30
14 14 14 15 18 21 22 22 25 25 26 29 30 31 31 31 32 33 35 36 37 37 36 36 33 30 28 30 30 29 28 28
18 22 21 21 28 26 25 27 30 32 31 32 33 33 35 35 36 38 39 39 39 38 37 34 33 32 30 29 29 32 32 33
18 26 27 15 22 25 29 31 34 36 35 36 38 37 40 40 40 40 38 37 36 35 34 34 34 36 36 37 37 36 36 38
29 20 18 14 21 28 33 32 34 38 40 42 43 41 43 44 43 41 39 38 39 40 41 42 44 44 43 44 44 43 43 42
29 34 35 16 35 35 36 39 40 43 50 49 47 45 44 46 46 46 45 43 44 45 47 49 52 53 53 53 53 52 52 50
28 34 35 36 39 40 44 43 46 51 53 54 54 52 48 47 49 51 51 51 52 53 54 57 59 60 61 59 58 57 57 57
32 35 40 43 46 46 46 49 50 54 55 54 53 52 51 54 56 55 57 58 59 60 63 65 64 64 62 63 64 63 63 64
36 40 42 45 47 49 51 52 54 55 55 53 53 55 56 57 58 60 62 63 64 66 68 70 70 72 73 73 73 71 69 69
40 41 44 47 49 50 51 53 53 53 53 56 57 58 60 62 63 65 66 67 69 71 74 75 77 80 81 80 79 75 74 72
43 44 46 48 49 50 49 48 49 51 54 56 59 62 64 66 68 70 73 76 78 81 82 82 81 78 78 81 82 82 81 75
44 46 45 45 47 47 47 48 50 53 56 59 60 63 67 72 74 77 80 82 83 85 84 82 81 80 79 81 84 85 83 81
44 45 46 47 43 43 45 49 53 56 59 63 66 69 72 75 79 81 82 83 82 80 81 80 79 80 81 82 83 84 84 85
39 40 45 47 48 50 51 53 55 59 64 68 72 75 78 80 82 83 81 80 81 81 81 81 82 83 82 83 84 83 84 85
38 39 41 44 46 51 55 61 65 70 75 79 80 82 83 84 82 80 79 80 80 79 80 81 82 81 82 82 83 84 84 85
42 43 44 46 50 55 59 66 72 76 79 80 82 82 81 78 77 78 78 78 79 80 80 80 81 81 80 77 75 74 71 68

GFSFLT2_500_spd_030.txt.gz
Wind_Speed
10 7 5 3 4 6 7 8 10 12 14 15 17 18 19 19 19 21 22 22 23 22 22 22 21 20 21 23 25 26 25 26
6 4 5 6 8 10 12 12 13 14 17 18 20 22 23 23 24 25 24 24 25 24 23 23 23 24 24 25 26 26 27 29
6 7 9 11 12 11 11 13 16 18 18 20 22 23 25 27 27 26 26 25 25 26 26 27 28 29 29 29 30 29 28 28
8 9 12 11 10 11 13 16 19 20 21 21 22 23 24 25 27 27 27 27 28 29 31 32 32 33 32 31 29 30 30 28
10 10 13 14 14 14 18 21 22 23 25 23 24 24 26 29 29 30 31 32 34 35 36 36 35 34 35 31 28 27 28 28
13 14 14 14 15 17 19 22 23 25 29 28 28 28 31 34 33 34 35 35 37 36 36 36 36 34 31 31 31 31 29 29
20 19 18 27 21 20 26 24 24 26 28 29 27 31 35 38 38 39 39 37 35 33 32 32 32 31 32 31 30 32 35 37
17 21 20 19 13 34 27 29 28 33 35 33 35 40 39 41 40 39 37 35 33 34 35 34 33 35 35 37 39 39 39 41
20 19 19 20 16 28 29 36 37 39 38 43 42 42 41 40 40 40 39 40 39 39 41 41 43 44 44 44 47 48 49 48
24 26 20 26 29 32 32 37 41 42 46 46 46 43 40 37 38 42 43 44 45 46 47 47 48 50 51 53 54 56 56 56
27 28 31 33 35 38 40 41 41 44 48 49 47 44 43 43 43 43 45 48 50 52 53 55 56 56 57 58 59 61 62 63
29 31 36 40 42 42 44 44 46 49 49 48 47 47 48 48 50 51 52 53 54 56 58 61 63 64 65 65 65 67 68 70
31 40 43 46 49 49 49 51 52 52 50 48 48 49 51 54 56 58 60 62 63 65 67 69 72 74 75 75 76 78 79 80
41 44 48 51 51 51 52 53 53 52 52 52 54 56 58 60 63 66 69 71 74 75 75 77 77 78 80 81 79 78 78 81
40 44 46 48 49 50 51 50 48 49 51 53 55 58 61 65 70 74 76 78 81 83 84 86 86 85 83 83 83 82 81 79
40 43 46 48 49 49 47 47 49 51 52 55 59 63 68 72 76 78 81 83 86 88 88 86 85 83 83 84 85 87 86 80
42 44 46 46 43 41 42 45 47 49 54 58 61 67 71 75 78 81 82 84 83 82 81 80 81 81 82 82 82 83 85 83
45 46 44 42 41 41 41 45 50 56 62 67 71 74 78 81 82 84 84 83 82 81 80 81 81 82 84 85 85 84 85 87
40 39 38 38 38 42 47 53 58 65 70 74 78 81 84 86 87 85 82 80 80 81 82 83 84 84 84 85 85 85 84 84
33 32 33 36 41 47 53 59 66 71 75 79 83 86 89 89 86 83 82 82 82 84 85 84 83 82 80 77 73 70 68 65

GFSFLT2_500_spd_033.txt.gz
Wind_Speed
13 10 8 7 8 10 11 11 12 14 16 18 19 20 22 24 24 26 28 29 30 30 29 28 27 27 26 26 27 26 26 27
10 10 10 9 11 12 12 13 13 15 17 20 21 24 25 26 26 27 28 29 28 29 29 28 27 27 29 29 31 31 29 30
11 12 11 12 13 13 14 14 17 20 22 22 23 23 23 24 25 27 28 28 28 30 30 31 31 31 31 32 32 32 31 29
11 11 12 13 13 15 17 18 21 22 23 23 24 24 25 26 27 28 30 31 31 33 34 35 36 35 35 34 33 31 28 28
10 11 13 14 16 18 21 21 24 25 24 26 27 27 27 28 29 31 31 32 33 34 35 35 35 34 34 33 31 31 29 27
9 14 16 18 17 18 23 20 27 24 26 28 26 26 28 31 36 36 33 33 33 32 31 29 29 30 31 32 31 30 31 31
14 15 18 21 19 18 24 26 26 29 25 31 32 28 33 35 37 37 34 31 31 30 28 28 29 29 30 30 30 33 35 36
19 18 19 17 16 22 16 22 28 28 30 34 33 39 38 37 38 38 34 32 31 32 32 32 32 32 33 35 36 38 39 42
18 18 18 21 17 18 25 31 34 34 36 36 38 42 41 40 35 35 37 37 37 37 37 39 40 39 40 40 42 44 45 47
21 24 22 23 24 26 33 37 38 40 40 42 46 44 42 39 38 38 39 41 43 44 44 45 47 48 49 50 51 52 53 54
21 16 26 23 23 39 42 43 43 41 44 48 47 45 41 39 38 40 41 43 44 47 49 51 52 53 55 56 58 60 62 63
17 27 27 34 42 44 46 45 46 45 48 47 47 44 44 43 43 44 46 50 53 56 58 59 60 61 62 63 65 66 67 69
25 28 37 44 46 48 49 50 52 52 52 50 46 46 46 47 50 54 58 61 63 65 65 67 68 70 70 69 69 70 71 73
32 38 43 46 49 50 52 53 54 54 52 50 49 48 51 55 59 63 67 69 72 75 77 78 79 80 81 80 81 78 77 76
35 41 46 48 50 52 53 54 54 51 49 48 49 53 57 62 67 70 74 77 79 81 83 85 86 86 86 86 85 84 84 79
43 45 49 49 50 52 53 52 50 50 51 54 58 61 65 69 73 76 78 81 83 84 85 86 86 85 84 84 85 86 88 88
42 46 48 52 51 49 45 44 45 49 52 56 60 64 69 72 75 79 82 84 86 87 86 85 84 84 85 85 86 87 89 89
43 47 51 45 42 41 41 44 48 52 56 61 65 69 73 78 82 85 87 87 86 86 86 87 87 89 90 90 90 90 90 92
46 43 40 37 37 40 43 48 53 58 63 68 71 75 79 83 86 87 86 85 86 87 88 88 87 87 88 87 85 84 84 83
41 36 33 35 39 43 48 54 58 63 66 70 76 82 87 89 90 91 92 92 92 93 96 91 85 80 77 70 72 72 70 68

GFSFLT2_500_spd_036.txt.gz
Wind_Speed
11 12 12 11 10 10 11 11 13 14 16 18 20 22 24 26 28 27 27 26 26 27 28 28 28 29 29 28 28 28 28 28
11 12 10 12 12 12 12 13 15 16 18 21 24 26 27 27 27 26 26 26 27 28 27 27 27 28 30 30 30 30 31 31
10 10 11 13 12 14 15 16 16 17 20 23 25 26 28 29 29 28 28 28 31 31 30 31 32 32 31 33 34 32 30 29
7 9 10 13 14 15 18 20 19 19 20 25 24 27 30 29 29 30 29 32 35 34 34 33 33 35 35 34 33 32 30 27
8 9 11 13 15 18 20 22 25 22 24 26 26 24 28 30 30 33 35 38 37 37 34 33 32 31 31 29 30 28 28 28
7 11 15 18 19 21 22 23 29 28 25 31 26 26 28 29 34 38 38 36 36 35 32 30 29 28 28 27 30 31 29 30
11 16 19 21 21 23 23 23 22 25 30 29 28 29 32 32 38 40 40 36 33 32 30 30 28 28 29 29 30 31 32 34
17 20 24 24 24 20 20 14 17 23 29 30 32 33 34 38 42 42 40 36 35 34 32 32 32 32 32 34 35 35 36 38
20 24 26 22 21 20 18 21 20 28 33 34 34 37 40 44 43 39 38 37 37 36 36 34 36 38 39 40 41 43 45 45
25 24 24 24 24 30 18 30 31 35 35 36 41 42 44 44 42 39 38 38 38 37 39 42 45 48 49 51 52 52 53 54
22 23 20 32 22 27 36 39 41 38 40 44 46 47 47 45 42 40 39 39 42 44 49 52 53 54 57 58 60 61 62 62
20 18 31 29 33 40 44 46 47 48 50 50 50 51 49 46 43 40 42 46 50 53 57 59 62 65 67 68 69 70 71 72
18 21 36 37 39 45 46 46 53 53 53 52 51 50 46 43 44 49 53 56 60 63 65 69 71 73 75 76 77 78 78 78
28 34 39 45 47 50 52 53 53 55 54 52 50 46 45 48 53 58 62 66 69 72 74 77 79 81 82 83 84 82 80 80
33 36 39 45 49 50 53 55 56 54 51 48 46 49 55 59 63 66 69 72 74 76 78 80 82 83 85 87 88 90 91 88
37 40 44 48 50 53 55 54 50 49 47 49 53 56 58 61 65 68 71 75 77 80 82 84 85 88 89 91 91 93 94 94
42 43 46 45 50 52 49 46 46 47 50 53 55 58 62 66 69 73 75 79 81 85 87 90 92 93 95 95 95 95 96 97
47 37 49 47 46 48 47 44 45 48 51 55 59 64 67 70 74 77 81 85 90 92 93 95 96 96 96 97 97 94 89 85
51 45 48 45 45 44 44 46 49 52 56 60 64 67 71 76 81 84 87 90 93 94 97 99 100 99 98 91 79 70 66 66
49 48 46 43 41 44 47 50 52 56 60 64 68 74 79 82 86 90 92 93 96 100 102 103 103 95 82 67 59 64 67 64

GFSFLT2_500_spd_042.txt.gz
Wind_Speed
9 11 11 12 11 10 8 7 9 11 14 16 17 17 20 21 23 27 26 25 23 23 23 24 25 29 31 28 27 27 28 29
11 13 14 15 11 9 8 10 13 16 17 18 18 20 22 23 23 25 27 27 26 25 26 28 30 30 31 32 30 29 30 31
13 15 16 12 9 9 12 14 17 18 19 18 20 23 21 20 25 28 30 29 29 29 31 33 35 35 35 34 33 33 32 31
15 14 11 9 10 13 16 17 18 19 21 21 22 25 23 23 25 27 30 31 34 35 35 35 36 37 36 35 34 33 33 33
11 9 9 11 14 15 17 17 20 22 24 23 27 25 22 22 26 29 32 34 35 36 36 38 37 35 34 34 32 31 31 31
8 9 11 12 13 15 17 21 23 25 28 27 28 28 25 24 26 30 32 34 38 39 40 40 39 37 34 34 33 32 30 30
8 9 11 13 16 18 21 25 27 31 33 31 30 29 26 27 27 33 36 39 41 42 41 40 40 39 38 35 35 34 33 32
11 11 13 16 18 20 24 30 31 35 35 29 27 25 31 33 34 38 40 41 41 41 41 40 38 37 37 36 35 37 38 38
12 14 16 18 23 26 29 35 38 34 24 23 29 41 39 40 41 44 43 43 42 39 36 36 36 36 37 38 40 43 44 47
15 17 19 22 27 32 36 41 34 38 40 36 37 36 40 43 45 43 40 37 36 34 33 34 37 40 42 44 46 49 51 53
19 20 22 25 31 32 37 35 38 45 40 38 38 42 44 45 42 38 37 35 34 35 38 41 43 46 49 50 53 55 58 61
23 25 25 29 28 25 35 45 43 43 39 39 40 42 43 41 39 37 36 37 38 42 46 48 51 53 54 57 61 62 64 67
23 25 29 34 35 36 40 44 46 47 48 49 50 49 46 41 38 38 41 43 47 50 52 55 56 59 63 66 70 72 72 74
27 30 33 36 38 40 42 45 50 50 48 53 54 52 49 48 49 49 51 52 53 54 56 59 63 68 70 72 75 78 82 85
30 32 34 36 36 40 45 49 52 51 54 54 52 51 51 53 54 55 55 56 57 59 62 66 69 74 78 80 83 87 89 90
30 30 32 35 37 43 48 48 50 57 57 52 50 49 51 54 56 58 59 61 63 66 70 74 79 83 86 88 91 92 93 93
32 34 34 36 41 45 47 53 52 50 51 53 53 53 55 57 60 62 64 65 69 73 77 82 86 89 92 95 96 95 96 98
22 27 31 35 39 43 46 49 51 52 53 53 55 57 59 62 63 64 66 69 74 79 84 89 92 94 96 97 97 98 99 102
25 28 31 34 38 42 46 49 52 54 54 57 58 60 62 63 64 66 70 75 79 85 90 93 95 96 97 98 100 102 95 78
30 32 34 37 40 43 46 49 52 54 55 57 59 60 63 65 67 71 76 81 85 91 94 96 97 97 98 101 95 76 62 55

GFSFLT2_500_spd_045.txt.gz
Wind_Speed
8 11 13 12 10 13 12 10 9 9 11 13 16 18 20 22 22 24 24 24 24 25 23 24 25 26 27 27 28 26 28 29
8 12 14 11 12 12 9 8 10 11 13 15 19 21 22 25 25 25 26 24 25 25 26 27 29 31 33 32 31 29 29 31
11 14 12 11 11 10 10 11 12 14 16 18 21 23 25 27 28 29 29 26 26 28 28 29 32 35 37 37 37 35 32 31
11 11 9 10 11 12 12 13 14 15 17 20 24 27 29 28 30 30 31 27 26 32 31 34 37 39 37 38 38 38 35 34
9 8 9 11 12 12 12 13 16 17 21 24 28 30 31 30 31 33 30 27 32 34 38 40 39 40 39 38 37 37 36 36
6 9 10 11 11 12 14 17 18 22 27 29 30 31 29 31 27 29 28 25 31 36 41 42 41 40 39 38 36 36 36 36
9 10 10 10 12 16 18 20 23 27 28 31 34 34 32 29 32 27 28 32 36 40 42 45 45 43 41 39 37 37 37 37
8 9 11 13 16 19 22 23 26 30 35 38 39 26 27 39 42 39 39 39 43 44 45 46 43 40 39 38 37 36 37 38
12 14 15 16 19 23 25 28 32 36 39 32 29 33 35 36 41 38 39 40 43 42 43 42 40 38 36 36 38 40 41 43
12 17 20 22 24 26 33 38 39 42 25 36 32 32 35 37 41 42 45 47 44 40 39 39 37 37 39 42 43 45 47 49
17 19 22 21 25 29 36 33 27 30 39 40 40 33 34 40 44 45 43 42 39 36 38 39 41 44 46 48 50 52 53 54
22 24 25 25 29 33 34 37 39 36 39 43 42 39 43 48 49 47 42 41 39 39 42 45 48 50 51 52 52 55 58 61
23 26 28 30 32 35 37 38 37 39 43 45 43 48 53 51 48 45 43 43 44 47 51 53 52 52 53 55 57 60 65 69
26 28 31 33 34 36 38 40 42 45 47 48 53 52 49 49 50 49 48 48 50 52 54 55 55 58 61 64 67 69 73 78
26 28 30 30 32 35 37 38 40 44 48 53 52 52 52 52 51 50 52 54 56 58 59 61 62 65 69 72 75 78 81 85
27 27 26 26 28 30 32 35 39 41 44 47 50 52 54 54 55 57 59 60 62 63 65 67 69 72 75 80 84 88 90 92
20 20 21 24 28 30 32 36 39 42 45 49 51 55 56 56 57 59 61 62 64 65 68 71 74 79 83 88 92 96 99 101
19 21 24 27 30 33 36 40 44 46 49 52 54 56 58 60 61 62 62 64 66 69 73 77 82 87 92 96 97 99 99 101
22 25 28 30 33 36 40 43 47 49 52 55 57 58 59 62 64 64 65 67 71 74 78 83 89 93 95 95 97 97 99 94
26 29 32 34 37 40 43 46 49 51 53 55 57 58 60 63 64 65 67 70 74 79 84 88 91 92 93 94 95 95 86 74

GFSFLT2_500_spd_051.txt.gz
Wind_Speed
34 38 42 35 24 16 9 10 12 14 14 12 11 13 16 18 20 19 23 23 24 25 25 24 23 23 24 24 28 29 31 30
25 38 33 19 14 17 15 13 10 8 9 9 13 17 21 19 21 22 25 24 24 25 23 22 24 21 25 32 32 34 38 38
20 15 11 8 7 8 11 11 7 8 9 14 18 18 18 20 24 26 25 24 18 16 24 22 25 25 25 25 31 34 38 40
7 9 11 10 9 9 9 9 11 13 15 15 17 18 20 24 24 24 25 26 24 19 28 33 33 37 37 33 32 33 37 41
19 18 14 10 10 8 8 9 10 10 11 15 20 21 24 24 26 23 18 17 22 28 33 31 29 32 35 36 40 41 39 40
14 12 10 9 7 5 4 6 8 11 14 15 18 24 30 24 16 18 15 26 27 34 34 32 33 36 37 40 41 42 40 40
12 11 8 4 3 1 4 7 9 12 12 16 15 17 18 21 23 26 24 24 23 31 36 39 40 39 38 38 39 41 40 39
5 4 4 3 2 5 7 9 10 13 16 20 20 23 28 29 30 28 28 27 31 38 38 36 37 38 38 38 39 39 39 39
2 1 2 4 6 9 8 12 16 18 21 25 27 28 28 28 29 30 29 33 34 35 37 37 38 38 38 40 40 39 41 42
1 4 5 6 9 10 13 18 20 23 25 26 27 27 28 31 31 28 31 31 33 36 37 38 39 39 39 40 40 40 43 45
3 7 7 9 11 16 21 24 26 27 24 24 25 25 26 28 29 30 31 34 36 38 40 41 42 42 42 42 41 43 45 46
10 13 15 17 18 19 20 22 22 21 22 22 24 25 26 29 32 34 36 38 41 42 45 47 47 47 47 45 44 45 47 48
12 16 17 20 18 18 20 19 19 21 25 26 29 31 33 36 38 39 40 42 45 48 48 49 50 49 48 46 45 44 45 48
16 20 22 18 17 14 15 17 21 24 27 29 33 36 38 41 43 44 45 48 50 51 51 51 53 53 52 49 46 46 50 54
18 20 19 14 14 15 19 21 24 27 30 32 36 39 42 45 47 47 49 50 52 53 53 54 55 55 54 53 54 56 58 61
20 15 12 13 16 19 23 25 28 31 35 37 41 44 46 48 49 49 50 52 54 54 54 55 57 55 55 58 62 66 71 73
12 13 14 18 20 24 28 31 34 37 40 43 45 49 51 52 53 51 51 52 53 54 54 57 56 57 60 64 69 74 78 81
15 17 19 24 27 30 34 37 42 45 48 50 53 55 56 57 58 58 58 59 61 62 62 61 60 63 67 70 76 80 83 88
18 21 23 28 33 35 39 43 46 49 52 54 55 56 57 58 60 59 62 62 63 64 64 63 64 68 72 76 80 84 88 92
25 27 28 31 36 39 42 46 49 52 55 55 57 57 58 59 59 59 63 65 65 65 64 64 67 72 76 79 82 87 91 95

GFSFLT2_500_spd_054.txt.gz
Wind_Speed
28 30 23 43 46 39 31 21 18 11 10 16 14 18 14 15 16 20 22 22 24 24 18 19 15 16 17 21 24 23 23 26
34 36 41 44 41 27 15 15 13 11 13 14 11 9 12 15 20 23 22 23 23 23 23 15 20 26 26 31 30 30 31 30
30 32 25 31 23 21 21 19 18 11 12 13 15 15 17 17 20 20 20 23 25 25 22 21 25 26 26 27 31 34 35 37
23 31 14 6 19 18 15 16 13 13 15 17 16 13 14 19 21 22 23 23 20 18 18 24 28 32 33 32 33 35 36 39
28 15 14 20 15 13 13 11 10 13 14 10 11 12 14 19 20 13 15 15 17 22 22 25 30 33 37 38 37 37 40 42
17 22 21 17 15 13 11 11 11 10 8 10 9 15 12 18 15 19 21 22 23 25 23 26 29 32 34 37 36 35 36 38
21 20 16 14 10 8 6 3 5 7 10 10 11 12 17 20 23 22 21 25 24 25 26 29 30 33 35 37 37 39 38 37
17 15 12 9 7 4 3 6 9 10 11 10 17 19 21 22 23 22 24 26 23 26 28 31 33 35 37 39 40 41 41 41
11 9 8 6 5 5 7 6 10 14 14 19 21 21 22 21 22 20 22 26 28 28 30 33 34 35 37 39 40 41 41 42
7 8 6 5 5 4 6 11 15 18 21 21 20 19 18 18 20 23 24 28 30 31 32 34 36 38 39 41 43 45 45 43
2 2 3 5 6 9 11 16 17 19 19 16 16 17 18 20 23 26 30 32 33 34 35 37 39 42 43 44 44 45 47 47
3 5 6 7 10 14 16 16 18 17 14 16 18 20 23 26 29 31 34 36 37 38 40 42 44 47 47 47 47 48 49 47
7 9 10 13 14 13 14 15 12 15 17 19 23 26 28 31 34 37 40 42 43 44 45 48 50 50 50 50 50 51 51 48
11 14 14 14 14 12 12 12 16 19 22 25 28 31 34 36 39 42 43 46 48 50 51 52 53 53 54 54 53 52 49 49
14 14 14 13 11 12 15 16 20 24 27 30 33 37 40 43 45 47 49 51 53 54 54 54 55 55 56 58 58 58 53 52
12 11 11 12 14 16 19 22 25 29 32 35 38 42 45 46 48 50 51 51 53 55 55 55 56 57 58 58 59 56 57 60
8 9 11 12 17 21 24 27 30 34 37 40 44 46 48 48 49 51 53 55 55 54 53 56 61 64 63 63 59 59 63 67
8 10 14 19 22 26 29 32 36 39 41 44 46 48 50 52 53 54 55 56 58 56 57 65 67 70 68 65 62 66 69 73
13 16 20 24 27 29 31 36 40 43 45 48 49 52 54 55 57 58 59 62 61 59 63 67 69 70 69 65 68 72 76 79
18 20 24 27 30 33 36 41 46 49 50 51 53 55 56 59 61 59 64 63 64 64 66 67 70 71 69 71 74 78 82 85

GFSFLT2_500_spd_057.txt.gz
Wind_Speed
32 42 43 41 32 47 48 43 30 10 10 14 12 14 15 19 18 16 15 19 23 24 25 24 23 24 21 21 24 24 25 26
34 27 24 31 34 42 45 34 17 13 10 11 13 13 18 16 12 17 22 22 25 25 24 21 22 21 23 29 31 34 33 34
26 29 34 42 40 36 35 24 18 14 14 14 12 13 10 10 18 22 22 26 26 23 20 19 19 20 27 31 33 37 41 44
28 22 28 25 26 36 25 24 21 17 16 12 11 12 14 19 20 25 22 19 15 18 20 20 26 26 29 31 34 34 35 37
27 25 23 21 19 22 23 19 13 12 11 10 11 16 18 19 18 14 14 19 21 20 27 30 30 29 29 29 32 33 35 37
22 21 24 15 22 18 16 14 13 10 11 13 15 13 13 15 19 20 21 22 25 26 27 29 28 26 28 29 33 35 37 39
24 19 19 19 17 15 11 9 7 7 7 11 13 16 17 20 21 22 23 24 23 22 24 28 30 31 34 37 39 40 40 40
19 16 17 15 14 12 11 10 9 8 8 12 11 14 20 24 22 20 20 19 23 26 27 31 33 35 36 38 39 40 41 42
13 16 15 12 14 10 6 5 4 9 12 14 16 20 20 18 17 19 20 23 27 29 30 33 35 37 38 40 42 44 44 45
8 11 10 9 9 6 7 3 9 12 13 15 17 13 14 15 18 21 24 27 29 32 34 36 38 40 42 44 46 47 48 48
12 10 7 7 4 4 5 9 13 14 15 14 12 15 16 19 21 25 28 30 34 37 40 41 43 44 46 46 48 48 49 49
8 3 2 1 4 7 10 13 14 14 11 13 17 18 20 23 26 29 33 36 39 42 44 45 46 47 48 48 49 49 50 50
2 1 4 6 8 10 12 12 11 11 14 18 20 23 26 29 32 35 38 40 43 45 47 48 48 49 51 51 51 49 49 52
3 5 6 9 8 10 10 10 11 15 17 21 25 28 32 34 37 40 42 44 47 49 50 51 52 55 54 52 51 52 56 58
6 7 9 9 8 8 9 12 15 19 22 27 30 34 37 39 42 44 46 48 50 52 54 54 54 55 54 56 58 59 62 63
12 11 9 8 8 11 14 17 20 25 28 32 35 38 41 44 47 48 50 50 49 51 54 56 59 58 59 59 61 65 66 62
10 10 9 10 13 15 17 23 26 30 33 36 38 43 45 47 48 49 51 49 46 53 54 58 63 61 61 61 64 66 67 68
8 9 10 13 16 19 23 27 31 35 38 40 44 46 48 48 45 47 51 47 50 57 62 64 65 63 63 67 67 66 69 71
10 11 15 17 20 24 27 31 36 40 42 45 47 46 48 45 45 51 46 55 60 66 70 65 67 68 69 71 72 74 75 78
14 16 18 21 24 28 31 36 41 44 45 47 48 48 47 50 44 56 59 60 65 69 75 69 76 76 75 74 75 78 80 80

GFSFLT2_500_spd_060.txt.gz
Wind_Speed
27 31 27 25 33 46 51 36 46 40 30 20 11 9 13 15 14 12 13 16 18 22 26 26 28 27 26 21 22 23 24 27
29 35 28 16 37 32 39 38 39 38 22 14 15 11 13 12 9 10 15 17 22 27 29 31 31 26 22 20 23 27 27 29
32 34 35 29 32 45 39 42 36 27 18 13 11 10 10 9 13 14 15 20 27 29 31 27 22 21 22 25 29 27 30 33
27 38 29 35 29 38 35 32 21 15 14 12 10 11 12 10 12 16 20 26 29 23 22 24 23 27 30 33 30 28 30 33
19 26 33 38 33 30 31 30 22 18 16 15 10 12 12 14 18 22 21 18 21 23 24 26 26 24 24 28 29 30 32 35
15 28 19 26 32 28 18 20 18 16 13 8 12 16 19 17 14 15 23 22 24 22 21 20 23 26 28 30 33 34 36 39
26 15 21 22 19 22 18 16 15 11 11 12 14 16 17 18 18 20 22 21 19 19 21 25 28 30 31 32 35 37 40 41
18 18 18 18 13 15 12 13 14 12 10 11 9 12 14 16 20 17 16 17 20 23 27 28 30 32 35 36 38 41 42 44
18 17 14 14 13 13 11 7 7 9 11 11 11 14 15 15 12 14 17 21 23 26 29 32 35 37 40 41 43 44 45 45
13 16 16 12 12 13 13 13 11 9 10 11 12 11 9 12 14 17 21 24 26 30 35 38 40 42 43 45 47 48 48 49
15 16 15 15 14 10 10 10 10 10 13 11 10 10 12 15 17 21 24 28 33 37 40 41 44 45 47 48 49 49 50 51
12 11 11 11 10 9 8 10 10 11 11 9 11 14 17 19 21 26 30 34 38 41 43 45 45 46 48 48 49 50 52 53
10 9 10 11 10 9 9 10 10 9 10 14 15 17 21 24 26 31 35 39 43 45 46 47 48 48 48 51 51 52 53 52
9 8 8 9 9 10 9 9 9 11 14 18 18 22 26 29 32 35 39 44 46 46 48 51 51 48 48 51 54 56 56 57
10 10 11 11 10 11 9 8 11 15 18 21 24 27 30 34 36 39 43 46 48 48 49 54 52 50 51 56 60 61 60 61
13 13 14 13 12 12 11 13 15 17 22 25 29 31 35 38 40 42 44 46 49 49 52 48 49 55 61 64 67 71 66 66
15 14 14 13 13 14 14 17 19 22 26 30 33 36 40 42 43 45 46 48 46 48 52 50 59 63 66 69 73 73 72 74
16 13 13 12 12 14 19 20 22 26 31 35 38 42 45 45 48 48 46 49 43 40 55 65 61 62 69 72 73 76 75 75
15 13 15 14 15 18 20 24 26 31 37 41 43 45 44 48 47 52 49 50 49 53 64 64 62 66 72 71 76 77 78 79
14 17 21 15 16 21 24 29 32 38 42 46 45 44 46 51 49 51 50 54 56 60 67 64 69 72 74 75 76 78 80 83

GFSFLT2_500_spd_063.txt.gz
Wind_Speed
23 25 26 25 28 26 30 30 33 38 38 42 35 23 19 19 12 17 16 11 12 13 16 20 23 23 28 23 20 17 19 23
28 43 27 43 32 25 29 45 39 40 40 35 28 17 20 14 16 16 10 10 13 18 23 24 25 29 22 20 22 22 28 27
28 31 33 30 45 30 38 41 31 40 41 38 21 19 10 13 12 8 10 12 16 21 25 27 22 22 24 23 24 24 23 25
29 38 31 35 43 33 25 31 37 37 31 26 20 16 12 9 10 10 14 19 20 22 24 21 22 22 21 19 21 25 29 31
27 34 37 39 39 38 34 35 35 32 24 20 17 16 9 7 10 15 19 21 23 21 22 18 15 15 21 25 27 28 29 32
28 36 21 28 28 36 32 32 31 29 23 18 14 12 14 14 17 17 19 18 24 21 14 14 18 22 25 26 28 31 34 35
18 25 20 20 17 23 26 18 18 20 17 14 12 12 13 18 17 19 20 20 15 13 16 18 21 24 27 30 33 34 37 39
20 19 23 28 29 17 22 21 18 14 11 11 12 11 14 14 15 17 14 13 15 17 20 21 23 27 31 34 36 38 40 42
16 19 19 20 17 15 12 11 11 12 13 13 11 11 11 12 13 10 12 16 19 21 23 26 28 32 36 38 40 42 43 44
19 18 16 14 13 12 11 11 12 12 9 8 10 10 12 12 12 14 17 18 23 25 28 32 34 37 40 42 44 45 47 47
15 16 16 14 12 11 13 13 12 11 11 12 14 12 12 13 14 18 20 22 28 29 33 36 39 41 43 45 47 48 46 44
8 11 12 13 13 12 11 12 12 13 13 14 13 12 15 15 18 21 24 28 32 33 36 39 41 43 45 46 49 48 45 44
14 13 14 15 15 14 14 14 12 12 14 13 13 14 15 19 22 26 28 32 35 37 39 41 46 48 48 48 45 47 51 56
15 15 15 13 14 15 15 13 13 13 14 13 14 16 19 23 27 29 31 36 39 40 42 44 48 48 46 49 51 54 55 54
14 13 13 14 15 15 16 16 14 15 15 15 17 20 23 27 30 32 36 38 41 41 46 47 48 48 50 52 58 63 59 58
15 16 16 15 17 17 17 17 15 16 18 19 22 23 26 30 34 37 40 41 44 43 46 47 50 46 49 57 63 64 60 63
17 17 16 17 16 19 18 16 18 21 23 24 26 28 32 35 40 43 43 42 43 47 46 50 52 51 54 63 68 65 64 67
18 16 14 16 16 17 19 20 22 25 23 25 29 33 37 41 42 42 42 45 48 50 53 53 57 54 63 69 69 67 67 68
20 17 16 18 21 22 24 25 26 22 25 28 32 33 41 40 41 43 45 50 54 56 57 58 59 62 68 67 68 69 69 71
18 18 17 20 26 27 23 22 21 27 29 34 33 41 40 42 44 46 51 52 56 59 56 57 70 67 68 68 69 71 73 76

GFSFLT2_500_spd_066.txt.gz
Wind_Speed
13 14 22 26 26 27 29 28 30 26 23 23 28 33 37 30 27 22 24 22 14 13 11 13 17 18 20 21 17 17 16 18
14 16 26 27 35 41 29 30 33 30 33 31 33 31 29 31 26 22 16 15 10 11 13 18 19 22 21 18 18 18 18 17
22 24 33 32 20 32 34 28 35 39 40 33 31 35 32 27 26 21 13 12 11 13 18 20 18 19 19 18 15 13 17 21
27 26 30 31 33 38 36 41 40 54 33 34 34 31 24 24 15 14 11 11 15 18 17 17 19 19 14 13 16 18 19 22
29 30 23 27 36 32 37 42 29 35 36 32 30 27 25 18 15 13 15 15 15 17 19 20 12 11 14 16 18 20 24 27
27 27 29 32 33 37 38 25 32 33 28 24 21 20 17 12 14 15 14 14 13 17 17 13 12 15 18 19 22 25 28 31
33 26 27 33 24 30 19 25 27 25 23 20 17 13 12 14 14 15 17 14 17 13 11 13 16 18 21 25 27 31 33 36
25 18 21 21 25 29 35 25 10 19 23 20 17 14 13 13 16 17 14 17 13 12 14 16 19 22 26 29 33 35 37 39
17 19 29 20 24 32 15 22 21 16 13 12 13 13 12 12 16 17 14 12 13 14 17 20 24 26 30 32 36 38 39 40
17 16 15 19 17 19 17 14 12 12 14 13 15 14 13 15 17 11 11 13 16 18 21 25 28 31 35 37 39 41 42 42
15 15 16 17 16 14 13 11 13 14 12 14 14 13 13 14 10 13 14 17 20 23 26 30 33 36 38 39 40 43 44 40
14 13 12 11 11 11 11 10 11 13 15 16 16 14 14 11 13 15 18 22 24 28 31 34 37 39 40 42 44 46 44 45
8 11 9 10 11 13 15 15 17 17 18 18 17 14 13 13 16 18 22 25 29 32 34 37 39 38 42 43 44 43 44 46
11 12 13 14 15 15 15 17 19 19 19 18 15 15 15 16 19 22 26 29 33 35 37 38 40 41 42 42 44 47 46 49
14 15 15 15 15 18 19 20 19 19 18 17 17 18 19 20 23 27 29 33 36 39 38 39 41 43 46 47 48 50 55 58
16 17 17 18 18 19 21 21 22 22 20 19 21 22 22 24 28 29 32 37 39 38 36 40 43 44 47 50 52 56 61 61
17 18 19 20 21 20 22 21 22 22 23 22 24 29 28 28 31 33 36 38 38 39 40 41 46 50 53 55 55 59 66 65
20 20 19 18 20 22 26 26 25 26 26 27 30 29 25 32 38 35 41 38 42 43 42 45 46 54 58 60 58 67 71 72
18 19 20 19 18 19 24 28 26 27 26 30 27 27 32 36 33 42 42 42 46 48 48 49 50 56 64 68 66 73 73 72
21 21 21 18 19 20 23 27 33 33 25 24 27 30 34 33 38 40 43 46 51 52 52 51 55 57 62 67 71 73 73 72

GFSFLT2_500_spd_069.txt.gz
Wind_Speed
35 35 29 39 39 38 37 35 30 27 26 23 22 23 25 29 31 31 31 30 20 16 13 10 11 15 18 18 16 14 16 15
10 14 27 33 42 31 29 26 27 29 26 24 24 26 30 27 31 31 32 21 17 14 11 12 14 16 16 16 15 15 13 12
17 10 17 24 32 47 34 21 28 32 32 31 36 40 29 29 26 27 24 19 17 11 12 13 16 14 15 17 14 10 12 15
22 21 23 26 28 31 19 21 26 35 40 35 47 41 31 33 27 23 21 14 13 14 14 17 13 17 14 9 10 13 14 16
24 21 23 29 30 19 27 21 26 31 43 41 39 31 34 26 23 13 11 14 14 13 15 16 17 15 10 13 13 15 17 20
23 22 25 19 28 29 28 23 25 24 37 43 37 34 24 21 17 18 15 14 14 12 14 15 14 12 14 15 16 21 22 25
26 21 23 27 37 28 22 21 18 22 29 35 35 26 21 17 15 16 16 16 15 15 15 11 12 14 15 18 22 24 27 29
24 30 32 39 35 28 27 23 22 26 33 41 24 19 17 16 16 16 17 17 17 15 12 12 15 17 19 22 26 28 31 32
16 17 18 16 26 23 34 30 30 21 20 21 22 17 13 13 16 17 15 14 13 12 13 15 17 21 24 27 29 32 34 36
26 18 15 18 25 14 17 14 18 20 19 16 14 12 13 14 15 16 11 11 12 13 16 19 22 25 28 30 33 35 36 39
22 22 14 9 10 16 21 20 16 13 9 7 10 13 14 16 13 13 13 13 14 16 20 22 26 29 31 33 36 37 39 41
9 13 14 13 14 14 12 8 6 5 10 14 15 15 16 16 14 14 14 16 18 21 24 26 29 33 35 35 37 38 41 42
11 13 12 9 6 5 4 6 9 11 14 16 16 17 18 16 15 16 18 20 22 25 27 30 34 36 37 36 39 38 42 44
2 2 1 1 3 4 6 8 11 15 17 19 20 20 20 18 20 20 22 24 25 28 31 35 38 37 35 38 41 44 44 44
3 5 6 7 9 11 13 14 17 18 19 21 21 20 20 22 24 24 26 28 27 31 36 38 37 36 38 39 42 43 48 54
9 10 11 11 13 15 17 20 21 22 22 22 21 21 23 26 28 29 31 32 31 36 38 36 38 41 41 42 43 49 51 57
11 13 14 16 18 19 21 23 24 25 24 25 23 24 26 28 35 40 34 35 37 41 40 40 43 48 46 45 49 52 55 60
16 17 17 18 19 20 22 24 26 27 27 28 26 29 31 33 38 32 31 36 37 39 42 43 48 52 50 51 52 54 57 62
17 18 16 18 20 20 19 21 20 22 27 30 32 34 35 37 33 36 35 38 37 40 42 46 51 52 51 53 56 59 57 63
17 18 20 20 18 18 18 20 21 25 23 27 32 33 32 31 33 39 41 39 38 42 49 48 50 54 55 54 58 64 70 71

GFSFLT2_500_spd_072.txt.gz
Wind_Speed
29 31 38 43 43 39 35 34 34 32 30 29 25 22 20 19 22 23 26 27 26 31 13 12 14 13 12 13 15 14 13 10
17 33 24 51 43 49 43 39 36 32 26 30 26 22 21 24 22 24 23 27 27 14 15 12 12 12 14 12 12 12 11 9
16 15 23 33 35 36 39 36 34 29 22 25 29 27 23 30 34 28 28 29 25 16 13 12 11 11 12 14 13 9 7 9
18 14 12 20 12 28 26 23 31 34 23 25 27 32 29 32 34 27 25 21 16 10 11 13 11 15 13 10 6 9 10 11
20 19 16 13 24 16 16 16 14 20 21 26 25 38 37 29 29 24 21 13 10 12 12 13 15 14 12 9 10 12 11 14
18 17 10 23 19 18 21 14 19 21 18 23 31 34 31 31 30 21 14 15 13 13 14 15 15 10 9 12 13 15 14 19
19 18 15 27 18 18 28 21 21 27 28 22 26 33 35 32 23 17 13 11 13 16 16 16 9 9 12 13 14 17 19 21
17 17 18 26 22 23 25 26 34 22 19 16 24 36 34 30 19 16 12 13 17 17 17 13 10 12 13 14 16 21 22 24
15 10 20 17 16 19 36 29 25 18 16 16 20 24 23 17 16 14 15 16 16 16 15 13 14 15 17 18 20 23 25 26
17 21 13 16 15 15 15 14 22 13 15 16 20 20 16 13 12 13 14 14 15 16 15 15 16 17 19 21 24 27 29 30
15 19 19 14 13 12 8 5 15 15 19 18 13 11 11 11 10 12 14 15 15 17 17 18 18 20 22 25 27 30 31 32
9 3 8 7 5 10 13 16 15 13 11 10 9 6 7 9 14 15 14 17 18 18 19 20 22 24 27 28 30 34 34 32
13 13 13 11 14 11 11 8 5 3 3 3 6 9 12 14 14 16 20 20 20 22 21 23 25 28 31 33 34 31 33 34
10 7 8 7 5 3 3 2 2 3 5 7 10 13 17 19 19 20 22 23 24 24 25 27 29 31 36 34 33 37 38 39
4 4 5 5 5 6 7 7 8 10 11 13 15 16 18 21 22 23 26 27 29 30 31 33 34 34 36 35 37 41 45 48
5 6 6 7 9 10 12 13 14 15 16 17 19 20 20 22 24 25 27 33 37 35 36 39 39 39 40 37 40 45 49 46
9 8 8 9 11 12 14 14 16 17 18 20 21 22 23 25 27 29 30 33 37 40 42 40 41 40 40 42 45 45 47 51
10 12 12 11 12 14 16 17 17 17 17 20 22 21 24 29 30 31 37 40 40 43 37 43 40 42 43 50 50 50 53 55
9 10 11 12 11 15 14 14 17 17 17 19 20 19 24 28 28 33 39 42 38 41 43 49 38 43 44 51 50 50 56 63
10 11 12 12 15 15 14 16 17 19 22 23 22 21 27 30 32 32 37 40 44 46 47 41 39 51 50 50 53 55 57 63

GFSFLT2_500_spd_075.txt.gz
Wind_Speed
36 31 38 53 51 44 48 42 37 34 31 27 27 26 24 22 19 20 19 17 16 20 23 27 15 12 13 13 4 10 10 6
23 31 38 22 48 45 49 40 37 34 29 27 29 27 26 25 21 19 19 16 17 20 21 14 14 12 12 12 10 9 7 6
13 14 26 27 32 47 45 42 36 32 30 26 25 26 27 28 25 23 24 24 19 17 18 15 16 14 11 9 10 10 6 6
17 13 16 10 22 36 29 35 36 34 32 32 29 19 25 23 24 30 21 21 17 12 13 15 11 8 13 14 6 7 8 8
15 15 14 13 13 11 9 27 29 24 32 29 30 23 23 24 29 29 20 20 10 12 14 10 11 13 16 14 9 11 10 10
17 16 12 8 17 14 14 13 15 18 14 18 17 20 22 22 22 30 21 18 12 14 13 13 13 13 14 12 12 11 12 13
17 12 12 7 9 6 8 13 15 13 10 17 23 25 22 17 25 29 20 17 18 17 16 13 13 14 14 13 14 13 15 16
13 13 15 10 10 6 15 20 15 21 21 24 19 16 14 18 23 29 21 22 20 17 14 13 14 15 14 14 15 16 16 18
12 10 7 6 7 13 10 9 15 21 20 22 17 14 13 19 26 22 22 17 15 15 14 16 16 16 15 16 18 19 19 22
15 15 13 6 8 9 11 9 6 10 16 17 18 9 18 18 22 17 12 12 13 14 16 16 16 16 18 18 20 22 24 24
12 10 17 13 12 10 9 11 11 16 18 16 9 19 21 16 9 8 9 10 13 16 17 17 18 19 21 21 24 24 27 29
8 13 12 9 8 4 4 8 8 9 12 17 17 13 13 8 8 10 12 13 16 19 18 19 21 22 23 25 27 27 29 30
11 8 11 12 16 17 18 18 14 13 13 14 13 5 2 5 10 14 13 18 19 19 20 22 24 27 29 28 27 29 30 28
17 18 15 14 15 13 14 12 10 10 8 4 2 4 7 10 13 17 16 17 20 22 24 25 29 30 33 35 34 32 32 31
11 11 9 7 9 8 8 8 6 6 3 2 4 7 10 12 14 17 20 21 22 25 29 31 35 37 40 41 41 38 38 39
8 8 6 5 4 5 5 5 4 4 5 5 6 8 11 13 15 17 21 23 24 26 28 31 33 38 38 46 42 41 39 42
5 4 3 2 3 3 5 5 5 5 7 9 8 11 13 15 16 20 21 27 27 30 31 38 43 43 43 46 43 39 42 46
2 1 4 6 4 4 5 5 7 6 6 9 10 11 11 9 16 18 19 21 23 33 36 38 42 45 45 53 43 35 40 46
8 9 8 7 9 7 7 7 11 9 8 9 15 15 15 17 19 21 20 22 25 29 33 38 37 39 49 46 44 44 45 53
13 14 13 8 9 12 10 11 14 15 16 16 19 20 19 21 22 25 28 28 31 34 35 38 39 39 45 34 40 52 53 55

GFSFLT2_500_spd_078.txt.gz
Wind_Speed
19 16 26 51 63 59 48 48 42 43 31 27 26 26 24 22 22 23 20 22 20 17 17 17 15 16 15 16 14 11 10 10
22 13 31 48 52 61 57 46 48 40 33 32 30 27 24 23 24 24 23 25 23 20 17 16 15 8 13 14 13 14 12 10
14 12 25 8 79 62 49 50 44 42 38 31 30 24 25 24 25 24 26 27 21 24 22 17 14 14 14 11 9 12 12 12
5 7 14 33 40 53 49 51 53 44 34 33 30 24 20 19 23 26 24 25 22 24 21 15 13 14 14 13 11 11 11 12
4 8 8 11 17 24 44 42 42 37 35 36 28 28 27 17 17 20 23 21 25 20 20 14 15 14 13 12 12 13 13 14
6 7 10 4 16 15 21 18 32 37 39 34 29 26 29 18 22 19 22 24 25 22 20 16 17 16 10 13 16 17 14 16
6 9 7 1 3 16 23 22 16 23 20 23 21 17 20 22 19 19 18 21 23 20 20 19 17 12 11 13 16 17 16 18
7 8 5 4 6 9 8 10 19 15 17 11 14 17 16 18 15 13 13 18 23 22 22 19 15 13 13 14 15 16 18 20
9 10 10 11 6 15 9 10 14 15 22 22 19 19 19 19 14 12 15 23 23 24 21 17 14 15 15 17 18 18 21 22
12 11 17 10 7 4 11 12 8 11 21 20 16 16 20 19 13 13 19 22 23 19 17 16 16 16 17 19 20 20 22 24
11 11 16 17 8 8 6 16 11 12 16 18 16 23 24 18 11 16 22 16 11 14 15 17 18 16 18 20 22 23 25 27
8 9 7 11 9 10 11 11 12 14 16 20 21 24 19 14 16 14 11 9 11 15 18 19 18 19 21 22 24 25 28 31
12 11 15 13 11 9 7 9 11 9 9 14 17 16 16 14 12 14 12 11 14 18 21 21 21 23 23 24 26 29 30 35
14 14 14 12 13 14 13 12 14 15 15 14 12 11 9 8 11 13 13 15 18 20 23 25 24 24 24 27 29 32 37 39
18 18 15 14 13 13 11 11 12 12 11 10 9 9 9 10 13 14 16 16 20 21 24 26 28 27 28 29 32 37 37 39
10 11 12 13 12 10 10 9 9 7 5 5 5 8 10 11 13 14 17 17 18 22 25 25 29 31 33 36 37 41 44 44
7 9 9 8 7 8 8 8 6 6 6 7 9 9 8 10 11 13 15 15 19 22 24 27 32 31 32 32 34 42 41 44
4 4 4 4 4 6 6 6 9 7 7 8 10 11 10 13 11 14 14 15 15 15 19 23 26 31 33 34 31 40 45 36
5 6 6 6 8 8 8 9 9 10 12 15 14 15 17 18 16 20 18 17 17 19 22 26 30 32 34 36 33 43 37 41
7 7 8 10 10 10 12 12 13 15 15 18 20 19 20 20 23 23 23 20 24 25 26 29 32 34 36 39 38 40 44 43

GFSFLT2_500_spd_081.txt.gz
Wind_Speed
34 38 32 24 26 29 37 35 46 41 39 32 30 27 23 26 17 20 19 20 19 19 21 24 24 24 23 19 23 16 17 16
14 18 36 41 30 46 48 41 48 43 45 31 35 25 22 21 20 21 22 21 20 16 21 22 20 20 21 17 15 17 14 13
6 4 7 30 33 37 47 47 51 41 40 45 36 26 24 22 21 23 24 24 20 17 23 20 23 21 22 16 20 18 16 15
3 3 7 8 25 39 56 63 52 56 44 42 32 26 26 23 19 21 24 25 24 19 19 20 23 21 22 23 21 17 16 18
2 3 7 9 24 24 55 51 49 42 58 42 32 29 27 25 21 17 16 21 24 22 23 20 19 21 22 21 18 19 15 17
1 5 9 4 15 13 56 49 47 44 44 37 31 30 30 28 28 29 23 26 26 23 25 21 19 21 21 20 20 17 17 17
5 6 5 4 10 9 22 38 33 26 37 36 36 33 34 28 25 30 28 27 27 26 23 22 21 23 22 21 17 18 20 19
7 9 8 5 7 14 25 30 14 15 30 28 33 33 32 32 27 27 27 25 22 22 23 22 23 22 22 18 17 19 20 20
8 12 14 10 7 9 8 10 14 20 21 20 22 23 25 24 23 23 25 23 20 18 21 24 22 19 20 17 17 17 18 19
8 7 9 13 10 9 10 9 11 18 17 23 25 23 22 25 24 25 26 20 18 23 25 23 19 20 18 18 19 19 21 23
9 10 11 14 16 9 15 17 19 19 24 29 30 29 26 25 26 25 23 16 19 22 20 20 18 20 20 19 19 20 23 24
12 12 14 21 18 10 17 16 21 19 18 23 30 30 28 26 26 27 19 17 15 17 16 19 22 22 21 22 22 22 25 26
9 13 14 12 19 15 17 19 23 23 21 22 25 23 23 24 27 18 15 16 14 14 18 22 23 23 24 25 23 26 27 29
10 9 11 9 13 13 17 17 14 16 17 18 18 16 17 17 14 13 16 15 17 18 20 24 24 25 25 26 25 27 30 31
14 16 15 16 16 14 12 14 13 11 13 13 11 13 12 13 14 15 17 18 20 21 23 22 23 25 28 29 31 30 29 34
9 9 10 10 12 11 11 12 14 12 14 14 13 15 15 16 15 16 17 17 20 22 24 25 27 27 29 32 33 35 35 36
8 8 9 10 11 11 10 12 12 12 11 12 14 14 16 16 15 16 16 18 21 23 24 25 29 29 29 31 31 33 35 37
1 4 6 8 7 6 7 7 9 8 8 10 13 13 14 13 15 15 20 19 20 20 18 23 24 27 28 31 32 35 37 39
3 3 3 3 2 4 6 8 9 11 12 13 13 15 16 17 18 18 20 24 27 26 24 22 24 28 30 33 35 37 40 42
8 7 5 5 6 6 7 9 11 12 13 15 15 17 20 22 22 23 26 30 32 34 29 24 28 30 33 36 38 39 41 43

GFSFLT2_500_spd_084.txt.gz
Wind_Speed
30 34 34 43 35 40 39 38 32 29 34 34 33 29 27 24 17 13 13 13 18 18 19 19 22 24 24 21 25 23 21 24
17 29 34 39 52 30 40 32 34 34 34 36 32 29 29 25 15 12 13 17 19 19 22 21 22 21 20 21 23 23 19 17
6 6 9 32 44 43 49 40 30 26 41 41 38 34 30 21 18 15 15 19 21 20 25 26 20 22 23 22 20 17 18 19
3 2 6 4 27 36 32 35 34 35 40 44 41 31 32 25 20 17 18 23 19 20 24 25 23 24 23 20 19 18 20 21
3 3 2 7 18 33 46 46 46 44 42 39 36 38 35 24 21 21 19 17 13 15 23 24 23 24 22 20 22 22 20 21
4 2 1 3 7 12 40 52 57 42 49 48 39 35 31 23 25 26 25 20 17 19 23 25 26 26 24 24 24 24 23 22
6 1 8 3 5 9 18 59 46 48 43 41 34 43 30 29 30 30 30 26 24 24 24 24 26 27 25 25 24 22 23 22
7 6 6 8 6 4 27 51 50 47 37 32 44 46 33 35 38 26 28 26 25 29 28 25 25 27 25 26 23 22 23 22
8 10 9 12 11 14 31 30 41 43 37 38 39 41 33 37 38 34 25 26 24 29 27 22 23 24 26 25 24 19 19 19
9 13 11 15 18 18 17 22 23 22 25 19 27 31 31 31 27 28 26 22 27 27 25 21 21 22 25 22 20 19 20 21
12 14 16 17 18 23 22 17 17 24 21 21 24 27 24 24 24 27 23 24 26 26 24 23 22 23 24 20 21 21 23 23
14 14 17 20 18 19 23 21 21 25 22 25 28 28 28 30 28 30 29 27 26 24 21 21 22 23 22 23 23 23 26 27
15 14 16 22 19 14 14 19 22 24 25 26 29 33 35 32 28 27 31 29 27 21 16 20 22 22 24 25 23 25 26 29
13 13 12 11 15 19 14 19 21 26 22 27 24 24 29 26 27 27 27 23 19 17 19 22 22 24 25 26 26 27 29 30
9 9 9 12 15 15 14 17 22 24 30 26 24 22 24 21 18 19 16 16 17 21 23 22 22 23 25 28 29 29 32 32
11 13 14 14 16 17 18 16 16 16 17 17 14 14 12 12 14 14 17 21 21 23 22 21 24 26 27 29 28 29 33 35
6 7 8 9 9 7 6 8 7 8 8 11 13 12 14 16 19 19 20 18 21 23 23 22 25 26 29 30 31 31 34 33
4 4 4 6 7 9 10 11 11 12 13 13 13 14 16 17 17 18 20 21 23 24 24 23 24 25 31 32 31 31 33 34
2 3 3 5 6 9 11 13 14 14 12 12 13 13 14 16 18 17 19 23 24 26 28 29 28 32 33 31 32 33 36 38
6 5 5 5 6 7 9 11 11 11 11 12 12 13 13 16 19 21 24 26 25 28 32 30 41 40 39 31 34 35 37 40